Time,TemperatureF,DewpointF,PressureIn,WindDirection,WindDirectionDegrees,WindSpeedMPH,WindSpeedGustMPH,Humidity,HourlyPrecipIn,Conditions,Clouds,dailyrainin,SoftwareType,DateUTC
2013-08-05 00:02:00,64.0,60.0,29.23,North,0,0.0,0.0,87,0.00,,,0.00,,2013-08-05 04:02:00,
2013-08-05 00:12:00,64.0,61.0,29.23,North,0,0.0,0.0,89,0.00,,,0.00,,2013-08-05 04:12:00,
2013-08-05 00:22:00,64.0,61.0,29.23,North,0,0.0,0.0,89,0.00,,,0.00,,2013-08-05 04:22:00,
2013-08-05 00:32:00,64.0,61.0,29.23,North,0,0.0,0.0,89,0.00,,,0.00,,2013-08-05 04:32:00,
2013-08-05 00:43:00,64.0,61.0,29.23,North,0,0.0,0.0,89,0.00,,,0.00,,2013-08-05 04:43:00,
2013-08-05 00:52:00,64.0,61.0,29.23,North,0,0.0,0.0,91,0.00,,,0.00,,2013-08-05 04:52:00,
2013-08-05 01:02:00,63.0,61.0,29.23,North,0,0.0,0.0,92,0.00,,,0.00,,2013-08-05 05:02:00,
2013-08-05 01:12:00,63.0,61.0,29.23,North,0,0.0,0.0,92,0.00,,,0.00,,2013-08-05 05:12:00,
2013-08-05 01:22:00,63.0,61.0,29.23,North,0,0.0,0.0,92,0.00,,,0.00,,2013-08-05 05:22:00,
2013-08-05 01:32:00,62.0,60.0,29.23,North,0,0.0,0.0,93,0.00,,,0.00,,2013-08-05 05:32:00,
2013-08-05 01:42:00,62.0,60.0,29.23,North,0,0.0,0.0,94,0.00,,,0.00,,2013-08-05 05:42:00,
2013-08-05 01:53:00,62.0,60.0,29.23,North,0,0.0,0.0,94,0.00,,,0.00,,2013-08-05 05:53:00,
2013-08-05 02:02:00,62.0,60.0,29.23,North,0,0.0,0.0,94,0.00,,,0.00,,2013-08-05 06:02:00,
2013-08-05 02:12:00,62.0,61.0,29.23,North,0,0.0,0.0,95,0.00,,,0.00,,2013-08-05 06:12:00,
2013-08-05 02:22:00,62.0,61.0,29.23,North,0,0.0,0.0,95,0.00,,,0.00,,2013-08-05 06:22:00,
2013-08-05 02:32:00,62.0,61.0,29.23,North,0,0.0,0.0,96,0.00,,,0.00,,2013-08-05 06:32:00,
2013-08-05 02:43:00,62.0,61.0,29.23,North,0,0.0,0.0,96,0.00,,,0.00,,2013-08-05 06:43:00,
2013-08-05 02:52:00,62.0,61.0,29.23,North,0,0.0,0.0,96,0.00,,,0.00,,2013-08-05 06:52:00,
2013-08-05 03:02:00,61.0,60.0,29.23,North,0,0.0,0.0,96,0.00,,,0.00,,2013-08-05 07:02:00,
2013-08-05 03:12:00,61.0,60.0,29.23,North,0,0.0,0.0,96,0.00,,,0.00,,2013-08-05 07:12:00,
2013-08-05 03:22:00,61.0,60.0,29.23,North,0,0.0,0.0,96,0.00,,,0.00,,2013-08-05 07:22:00,
2013-08-05 03:32:00,61.0,60.0,29.23,North,0,0.0,0.0,96,0.00,,,0.00,,2013-08-05 07:32:00,
2013-08-05 03:43:00,61.0,60.0,29.21,North,0,0.0,0.0,97,0.00,,,0.00,,2013-08-05 07:43:00,
2013-08-05 03:53:00,61.0,60.0,29.21,North,0,0.0,0.0,97,0.00,,,0.00,,2013-08-05 07:53:00,
2013-08-05 04:02:00,61.0,60.0,29.21,North,0,0.0,0.0,97,0.00,,,0.00,,2013-08-05 08:02:00,
2013-08-05 04:12:00,60.0,59.0,29.21,North,0,0.0,0.0,97,0.00,,,0.00,,2013-08-05 08:12:00,
2013-08-05 04:22:00,60.0,59.0,29.21,North,0,0.0,0.0,97,0.00,,,0.00,,2013-08-05 08:22:00,
2013-08-05 04:34:00,60.0,59.0,29.21,North,0,0.0,0.0,97,0.00,,,0.00,,2013-08-05 08:34:00,
2013-08-05 04:49:00,60.0,59.0,29.21,North,0,0.0,0.0,97,0.00,,,0.00,,2013-08-05 08:49:00,
2013-08-05 05:07:00,59.0,58.0,29.21,North,0,0.0,0.0,97,0.00,,,0.00,,2013-08-05 09:07:00,
2013-08-05 05:19:00,59.0,58.0,29.21,North,0,0.0,0.0,97,0.00,,,0.00,,2013-08-05 09:19:00,
2013-08-05 05:27:00,59.0,58.0,29.21,North,0,0.0,0.0,97,0.00,,,0.00,,2013-08-05 09:27:00,
2013-08-05 05:39:00,59.0,58.0,29.21,North,0,0.0,0.0,97,0.00,,,0.00,,2013-08-05 09:39:00,
2013-08-05 05:47:00,59.0,58.0,29.21,North,0,0.0,0.0,97,0.00,,,0.00,,2013-08-05 09:47:00,
2013-08-05 05:53:00,59.0,58.0,29.21,North,0,0.0,0.0,97,0.00,,,0.00,,2013-08-05 09:53:00,
2013-08-05 06:10:00,58.0,57.0,29.21,North,0,0.0,0.0,97,0.00,,,0.00,,2013-08-05 10:10:00,
2013-08-05 06:27:00,58.0,57.0,29.21,North,0,0.0,0.0,97,0.00,,,0.00,,2013-08-05 10:27:00,
2013-08-05 06:34:00,58.0,57.0,29.21,North,0,0.0,0.0,97,0.00,,,0.00,,2013-08-05 10:34:00,
2013-08-05 06:47:00,57.0,56.0,29.21,North,0,0.0,0.0,97,0.00,,,0.00,,2013-08-05 10:47:00,
2013-08-05 06:53:00,57.0,56.0,29.21,North,0,0.0,0.0,97,0.00,,,0.00,,2013-08-05 10:53:00,
2013-08-05 07:09:00,57.0,56.0,29.21,North,0,0.0,0.0,97,0.00,,,0.00,,2013-08-05 11:09:00,
2013-08-05 07:28:00,57.0,56.0,29.21,North,0,0.0,0.0,97,0.00,,,0.00,,2013-08-05 11:28:00,
2013-08-05 07:38:00,57.0,56.0,29.23,North,0,0.0,0.0,97,0.00,,,0.00,,2013-08-05 11:38:00,
2013-08-05 07:49:00,58.0,57.0,29.23,North,0,0.0,0.0,97,0.00,,,0.00,,2013-08-05 11:49:00,
2013-08-05 07:56:00,59.0,58.0,29.23,North,0,0.0,0.0,97,0.00,,,0.00,,2013-08-05 11:56:00,
2013-08-05 07:57:00,58.0,57.0,29.23,North,0,0.0,0.0,97,0.00,,,0.00,,2013-08-05 11:57:00,
2013-08-05 08:07:00,58.0,57.0,29.23,North,0,0.0,0.0,97,0.00,,,0.00,,2013-08-05 12:07:00,
2013-08-05 08:17:00,59.0,58.0,29.23,North,0,0.0,0.0,97,0.00,,,0.00,,2013-08-05 12:17:00,
2013-08-05 08:27:00,59.0,58.0,29.23,North,0,0.0,0.0,97,0.00,,,0.00,,2013-08-05 12:27:00,
2013-08-05 08:33:00,59.0,58.0,29.23,North,0,0.0,0.0,97,0.00,,,0.00,,2013-08-05 12:33:00,
2013-08-05 08:49:00,59.0,58.0,29.23,North,0,0.0,0.0,97,0.00,,,0.00,,2013-08-05 12:49:00,
2013-08-05 11:40:00,81.0,58.0,29.23,North,0,0.0,0.0,45,0.00,,,0.00,,2013-08-05 15:40:00,
2013-08-05 11:58:00,78.0,62.0,29.23,North,0,0.0,0.0,58,0.00,,,0.00,,2013-08-05 15:58:00,
2013-08-05 12:09:00,78.0,62.0,29.23,North,0,0.0,0.0,58,0.00,,,0.00,,2013-08-05 16:09:00,
2013-08-05 12:18:00,78.0,62.0,29.23,North,0,0.0,0.0,58,0.00,,,0.00,,2013-08-05 16:18:00,
2013-08-05 12:33:00,82.0,61.0,29.21,North,0,0.0,0.0,50,0.00,,,0.00,,2013-08-05 16:33:00,
2013-08-05 12:45:00,82.0,60.0,29.21,North,0,0.0,0.0,47,0.00,,,0.00,,2013-08-05 16:45:00,
2013-08-05 13:00:00,82.0,60.0,29.21,North,0,0.0,0.0,47,0.00,,,0.00,,2013-08-05 17:00:00,
2013-08-05 13:07:00,84.0,60.0,29.21,North,0,0.0,0.0,45,0.00,,,0.00,,2013-08-05 17:07:00,
2013-08-05 13:17:00,84.0,60.0,29.21,North,0,0.0,0.0,45,0.00,,,0.00,,2013-08-05 17:17:00,
2013-08-05 13:50:00,84.0,59.0,29.21,North,0,0.0,0.0,43,0.00,,,0.00,,2013-08-05 17:50:00,
2013-08-05 14:00:00,84.0,59.0,29.21,North,0,0.0,0.0,43,0.00,,,0.00,,2013-08-05 18:00:00,
2013-08-05 14:08:00,85.0,59.0,29.21,North,0,0.0,0.0,42,0.00,,,0.00,,2013-08-05 18:08:00,
2013-08-05 15:05:00,87.0,59.0,29.18,North,0,0.0,0.0,39,0.00,,,0.00,,2013-08-05 19:05:00,
2013-08-05 15:08:00,88.0,58.0,29.18,North,0,0.0,0.0,36,0.00,,,0.00,,2013-08-05 19:08:00,
2013-08-05 15:14:00,87.0,58.0,29.18,North,0,0.0,0.0,38,0.00,,,0.00,,2013-08-05 19:14:00,
2013-08-05 15:39:00,88.0,58.0,29.18,North,0,0.0,0.0,36,0.00,,,0.00,,2013-08-05 19:39:00,
2013-08-05 15:50:00,88.0,58.0,29.18,North,0,0.0,0.0,36,0.00,,,0.00,,2013-08-05 19:50:00,